KUIPER-00282

导读

KUIPER-00282(NORAD编号69267)是亚马逊低轨星座(原柯伊伯计划)的组网卫星,属于亚马逊面向全球提供卫星互联网服务的巨型低轨星座项目,该星座计划部署3236颗卫星,目前在轨卫星已超300颗,正快速推进商业化。该卫星工作于约630公里高度的低地球轨道,轨道倾角51.9°,运行周期约97分钟,配备相控阵天线与星间激光链路,主要为全球网络欠发达地区提供宽带接入服务,同时支撑航空互联、国防通信、卫星直连手机等B端及政府场景应用,目前处于在轨运作状态。

Basic Information
目录编号:
69267
目录名称:
KUIPER-00282
国际标识:
2026-118A
轨道中心:
EARTH
卫星名称:
KUIPER-00282
卫星全名:
KUIPER-00282
卫星状态:
在轨 (已飞行14 天)
发射日期:
2026-05-29 UTC
国别 :
美国 (US)
星等 :
--
Orbit Information
数据来源 国际轨道数据 AOE轨道数据
星历时间 2026-06-12T12:59:04+0800
17小时前
查看轨道信息
2026-06-11T00:00:00+0800
2天前
查看轨道信息
半长轴 6839.93km 6840.09km
偏心率 0.0011859 0.0011844
轨道倾角 51.859° 51.858°
近地点辐角 162.086° 155.827°
升交点赤经 77.551° 84.975°
平近点角 198.055° 325.018°
近地点 453.681km 453.851km
远地点 469.905km 470.055km
周期 93.829分钟 93.832分钟
每日圈数 15.347064 15.346526
Detailed Information
使用方式:
暂无
2D Orbit Map
3D Orbit Map
Orbit Altitude Analysis Chart
Orbit Inclination Analysis Chart
Orbit Comprehensive Analysis Chart
View Comprehensive Chart